User: anonymous   Login
Location: Waning Moon II Observatory
(30.3730°N, 89.7620°W)
Time: 18:38:30
(UTC-05:00)
Language:

Meteor 1-21 - Orbit

View from above orbital plane
View from above orbital plane
View from above satellite
View from above satellite

Ground track
Ground track

The orbit data is extracted from the following two-line orbital elements,

1  7714U 75023A   17112.93379377 -.00000101 +00000-0 -66702-4 0  9995
2  7714 081.2107 245.4628 0031570 053.6745 306.7332 14.07955688477169
Epoch (UTC): 22 April 2017 22:24:39
Eccentricity: 0.0031570
inclination: 81.2107°
perigee height: 843 km
apogee height: 889 km
right ascension of ascending node: 245.4628°
argument of perigee: 53.6745°
revolutions per day: 14.07955688
mean anomaly at epoch: 306.7332°
orbit number at epoch: 47716

The dashed part of the orbit path shows where the satellite is in the earth's shadow,  

DLR